Total_Precipitation_Accumulation
1.98 1.86 1.39 0.82 0.66 0.50 0.44 0.48 0.46 0.39 0.42 0.52 0.55 0.57 0.62 0.63 0.63 0.67 0.70 0.68 0.68 0.81 1.09 1.21 1.30 1.60 1.87 2.01 2.17 2.33 2.45 2.55 2.82 3.02 3.02 2.91 2.75 2.50 2.36 2.31 2.22 2.13 2.08 2.14
1.73 1.30 0.78 0.59 0.59 0.57 0.54 0.55 0.52 0.43 0.39 0.52 0.55 0.56 0.53 0.51 0.61 0.72 0.72 0.74 0.77 0.79 0.97 1.10 1.17 1.34 1.56 1.78 2.00 2.22 2.35 2.45 2.48 2.57 2.82 2.97 3.02 2.84 2.56 2.36 2.24 2.15 2.09 2.11
1.29 0.80 0.61 0.71 0.68 0.67 0.57 0.49 0.44 0.44 0.45 0.52 0.54 0.59 0.49 0.48 0.54 0.62 0.67 0.71 0.71 0.76 0.85 0.95 1.08 1.30 1.41 1.55 1.78 2.07 2.23 2.37 2.40 2.45 2.73 2.96 3.13 2.96 2.63 2.28 2.09 2.08 2.09 2.12
1.13 0.70 0.67 0.78 0.65 0.56 0.55 0.33 0.32 0.37 0.55 0.65 0.58 0.79 0.55 0.50 0.52 0.58 0.65 0.65 0.64 0.69 0.73 0.78 0.90 1.09 1.22 1.37 1.54 1.72 1.93 2.10 2.30 2.40 2.49 2.55 2.67 2.67 2.41 2.28 2.16 2.15 2.14 2.13
1.08 0.75 0.76 0.79 0.55 0.46 0.46 0.30 0.35 0.38 0.52 0.61 0.48 0.70 0.60 0.40 0.46 0.57 0.67 0.66 0.65 0.69 0.72 0.72 0.86 1.04 1.11 1.20 1.43 1.58 1.66 1.86 2.09 2.26 2.32 2.46 2.46 2.50 2.55 2.50 2.39 2.26 2.20 2.13
0.81 0.66 0.77 0.67 0.50 0.47 0.48 0.46 0.51 0.51 0.72 0.79 0.39 0.54 0.59 0.43 0.50 0.53 0.53 0.58 0.64 0.70 0.77 0.82 0.94 1.03 1.06 1.12 1.28 1.49 1.49 1.59 1.76 2.03 2.26 2.31 2.27 2.32 2.37 2.36 2.29 2.25 2.21 2.17
1.03 0.78 0.66 0.60 0.70 0.62 0.60 0.78 1.09 1.14 1.05 0.59 0.27 0.42 0.59 0.45 0.45 0.48 0.48 0.51 0.58 0.67 0.72 0.81 0.92 0.92 0.96 1.06 1.17 1.33 1.42 1.49 1.59 1.77 1.97 2.15 2.25 2.27 2.29 2.30 2.25 2.14 2.03 1.94
1.01 1.05 0.66 0.57 0.69 0.71 0.57 0.63 0.83 0.81 0.51 0.34 0.27 0.42 0.52 0.42 0.37 0.34 0.34 0.40 0.49 0.58 0.60 0.64 0.77 0.84 0.92 1.00 1.06 1.10 1.15 1.21 1.30 1.39 1.53 1.73 1.99 2.12 2.06 2.06 2.02 1.97 1.89 1.85
0.67 0.68 0.42 0.37 0.40 0.47 0.61 0.58 0.45 0.70 0.51 0.43 0.34 0.37 0.38 0.30 0.30 0.29 0.32 0.39 0.49 0.58 0.62 0.62 0.69 0.75 0.80 0.91 1.02 1.01 1.00 1.04 1.14 1.18 1.27 1.39 1.62 1.78 1.82 1.85 1.80 1.70 1.66 1.70
0.44 0.51 0.36 0.33 0.41 0.43 0.44 0.45 0.57 0.97 0.84 0.59 0.36 0.34 0.48 0.38 0.30 0.32 0.38 0.42 0.51 0.63 0.63 0.60 0.64 0.70 0.71 0.79 0.90 0.93 0.94 0.96 1.10 1.14 1.17 1.26 1.35 1.44 1.60 1.69 1.58 1.53 1.50 1.52
0.35 0.50 0.44 0.40 0.44 0.38 0.34 0.47 0.56 0.67 0.66 0.67 0.45 0.46 0.52 0.45 0.39 0.38 0.41 0.46 0.56 0.61 0.64 0.66 0.67 0.71 0.75 0.79 0.82 0.84 0.90 0.95 1.05 1.10 1.07 1.08 1.15 1.19 1.28 1.36 1.41 1.36 1.36 1.34
0.28 0.44 0.43 0.30 0.21 0.21 0.30 0.34 0.47 0.77 0.59 0.49 0.50 0.54 0.44 0.38 0.37 0.37 0.39 0.44 0.50 0.51 0.58 0.63 0.63 0.66 0.74 0.78 0.77 0.74 0.79 0.85 0.97 1.00 0.96 0.95 1.01 1.08 1.11 1.14 1.22 1.23 1.23 1.23
0.43 0.60 0.62 0.47 0.41 0.39 0.43 0.32 0.34 0.58 0.77 0.59 0.58 0.58 0.41 0.32 0.32 0.34 0.38 0.42 0.41 0.41 0.43 0.49 0.52 0.53 0.57 0.60 0.62 0.67 0.69 0.67 0.73 0.77 0.75 0.76 0.78 0.86 0.95 0.99 1.00 1.05 1.09 1.13
0.67 0.66 0.55 0.53 0.49 0.58 0.54 0.31 0.30 0.74 0.99 0.53 0.38 0.43 0.37 0.35 0.39 0.40 0.41 0.41 0.36 0.34 0.34 0.41 0.48 0.44 0.47 0.51 0.53 0.57 0.57 0.56 0.62 0.64 0.63 0.65 0.67 0.70 0.76 0.83 0.83 0.84 0.88 0.95
0.58 0.58 0.33 0.34 0.38 0.55 0.50 0.33 0.31 0.50 0.49 0.52 0.34 0.33 0.38 0.41 0.48 0.48 0.45 0.38 0.30 0.28 0.29 0.34 0.45 0.48 0.46 0.50 0.52 0.51 0.54 0.60 0.65 0.68 0.67 0.65 0.65 0.65 0.69 0.75 0.76 0.74 0.75 0.75
0.52 0.58 0.40 0.38 0.35 0.45 0.39 0.23 0.22 0.25 0.26 0.29 0.25 0.33 0.34 0.38 0.43 0.46 0.44 0.35 0.27 0.25 0.26 0.29 0.37 0.52 0.47 0.51 0.59 0.58 0.60 0.68 0.71 0.74 0.71 0.70 0.66 0.64 0.62 0.63 0.64 0.65 0.67 0.66
0.55 0.69 0.84 0.63 0.32 0.42 0.41 0.28 0.26 0.26 0.26 0.27 0.34 0.35 0.29 0.35 0.42 0.43 0.37 0.28 0.24 0.23 0.24 0.27 0.33 0.48 0.55 0.57 0.65 0.72 0.73 0.77 0.77 0.79 0.73 0.69 0.66 0.63 0.61 0.59 0.59 0.62 0.66 0.68
0.42 0.67 1.04 0.87 0.55 0.61 0.43 0.30 0.28 0.28 0.28 0.25 0.27 0.24 0.24 0.30 0.34 0.32 0.27 0.24 0.21 0.20 0.20 0.24 0.29 0.35 0.47 0.50 0.56 0.66 0.72 0.82 0.82 0.81 0.80 0.78 0.78 0.79 0.81 0.81 0.82 0.82 0.80 0.83
0.22 0.56 0.94 0.85 0.63 0.36 0.21 0.18 0.27 0.34 0.33 0.25 0.21 0.18 0.16 0.18 0.25 0.30 0.24 0.23 0.24 0.22 0.21 0.21 0.25 0.27 0.33 0.40 0.45 0.52 0.65 0.82 0.93 0.98 0.99 1.01 1.04 1.09 1.12 1.14 1.14 1.14 1.15 1.14
0.17 0.40 0.83 0.81 0.68 0.36 0.23 0.11 0.13 0.24 0.39 0.20 0.15 0.15 0.14 0.15 0.26 0.34 0.30 0.26 0.25 0.24 0.23 0.22 0.23 0.25 0.29 0.38 0.45 0.57 0.75 0.93 1.06 1.10 1.11 1.15 1.21 1.28 1.26 1.24 1.21 1.13 1.11 1.13
0.30 0.51 0.72 0.69 0.66 0.37 0.23 0.11 0.09 0.34 0.47 0.21 0.16 0.17 0.18 0.22 0.30 0.27 0.24 0.27 0.27 0.28 0.31 0.33 0.34 0.37 0.40 0.45 0.55 0.72 0.84 0.97 1.04 1.04 1.05 1.05 1.05 1.07 1.05 1.03 0.99 0.95 0.91 0.87
0.29 0.42 0.46 0.50 0.68 0.51 0.27 0.18 0.32 0.45 0.28 0.21 0.16 0.16 0.18 0.19 0.18 0.16 0.15 0.18 0.22 0.25 0.32 0.41 0.48 0.52 0.52 0.55 0.65 0.74 0.79 0.83 0.81 0.79 0.77 0.75 0.70 0.66 0.67 0.69 0.70 0.68 0.68 0.66
0.34 0.45 0.48 0.51 0.57 0.46 0.34 0.37 0.41 0.33 0.27 0.20 0.18 0.16 0.16 0.16 0.16 0.14 0.12 0.12 0.13 0.14 0.18 0.23 0.31 0.38 0.38 0.38 0.43 0.48 0.47 0.45 0.44 0.42 0.43 0.42 0.40 0.39 0.40 0.43 0.46 0.49 0.51 0.52
0.32 0.28 0.35 0.42 0.41 0.33 0.30 0.30 0.30 0.27 0.27 0.23 0.20 0.19 0.17 0.18 0.17 0.16 0.13 0.12 0.11 0.11 0.13 0.14 0.16 0.19 0.20 0.21 0.22 0.25 0.24 0.21 0.22 0.26 0.29 0.32 0.32 0.33 0.34 0.37 0.41 0.45 0.47 0.48
0.28 0.27 0.33 0.38 0.32 0.28 0.24 0.23 0.24 0.23 0.21 0.20 0.19 0.18 0.18 0.19 0.19 0.17 0.16 0.15 0.14 0.14 0.14 0.15 0.16 0.17 0.19 0.19 0.19 0.19 0.20 0.18 0.19 0.20 0.24 0.28 0.32 0.35 0.35 0.35 0.39 0.46 0.49 0.56
0.25 0.33 0.43 0.44 0.31 0.34 0.29 0.21 0.20 0.19 0.18 0.19 0.20 0.21 0.21 0.20 0.22 0.20 0.19 0.18 0.18 0.18 0.17 0.17 0.18 0.20 0.23 0.25 0.27 0.26 0.25 0.23 0.23 0.24 0.25 0.29 0.33 0.36 0.38 0.38 0.37 0.42 0.48 0.53